This is the latest recevied weather packets stored in our database for station/object DM4XI-13. If no packets are shown the sender has not sent any weather packets the latest 10 day(s).
| Time | Temp. | Humidity | Pressure | Rain* | Wind** | Luminosity | Snow |
|---|---|---|---|---|---|---|---|
| 1777787176 | 11.11° C | 61% | 1014.4 hPa | 0 mm | 0.45 m/s, 192° | 94 W/m² | - |
| 1777787115 | 11.11° C | 61% | 1014.3 hPa | 0 mm | 0.45 m/s, 165° | 92 W/m² | - |
| 1777787054 | 11.11° C | 62% | 1014.3 hPa | 0 mm | 0 m/s | 90 W/m² | - |
| 1777786993 | 10.56° C | 62% | 1014.3 hPa | 0 mm | 0 m/s | 88 W/m² | - |
| 1777786932 | 10.56° C | 63% | 1014.3 hPa | 0 mm | 0 m/s | 82 W/m² | - |
| 1777786871 | 10.56° C | 65% | 1014.5 hPa | 0 mm | 0 m/s | 76 W/m² | - |
| 1777786810 | 10.56° C | 65% | 1014.4 hPa | 0 mm | 0 m/s | 74 W/m² | - |
| 1777786749 | 10.56° C | 64% | 1014.3 hPa | 0 mm | 0 m/s | 71 W/m² | - |
| 1777786688 | 10.56° C | 64% | 1014.4 hPa | 0 mm | 0 m/s | 70 W/m² | - |
| 1777786627 | 10.56° C | 64% | 1014.3 hPa | 0 mm | 0 m/s | 70 W/m² | - |
| 1777786566 | 10.56° C | 64% | 1014.4 hPa | 0 mm | 0 m/s | 69 W/m² | - |
| 1777786505 | 10.56° C | 65% | 1014.4 hPa | 0 mm | 0 m/s | 68 W/m² | - |
| 1777786444 | 10.56° C | 65% | 1014.5 hPa | 0 mm | 0 m/s | 68 W/m² | - |
| 1777786383 | 10° C | 66% | 1014.4 hPa | 0 mm | 0 m/s | 69 W/m² | - |
| 1777786322 | 10° C | 66% | 1014.2 hPa | 0 mm | 0 m/s | 69 W/m² | - |
| 1777786261 | 10° C | 66% | 1014.3 hPa | 0 mm | 0 m/s | 70 W/m² | - |
| 1777786200 | 10° C | 68% | 1014.3 hPa | 0 mm | 0 m/s | 71 W/m² | - |
| 1777786138 | 10° C | 68% | 1014.2 hPa | 0 mm | 0 m/s | 72 W/m² | - |
| 1777786078 | 9.44° C | 68% | 1014.4 hPa | 0 mm | 0 m/s | 73 W/m² | - |
| 1777786016 | 9.44° C | 70% | 1014.3 hPa | 0 mm | 0 m/s | 73 W/m² | - |
| 1777785955 | 9.44° C | 71% | 1014.3 hPa | 0 mm | 0 m/s | 72 W/m² | - |
| 1777785895 | 8.89° C | 71% | 1014.4 hPa | 0 mm | 0 m/s | 71 W/m² | - |
| 1777785834 | 8.89° C | 71% | 1014.4 hPa | 0 mm | 0 m/s | 71 W/m² | - |
| 1777785773 | 8.89° C | 71% | 1014.4 hPa | 0 mm | 0 m/s | 70 W/m² | - |
| 1777785712 | 8.89° C | 72% | 1014.4 hPa | 0 mm | 0 m/s | 68 W/m² | - |
* Rain latest hour (hover to see other rain measurements)
** Current wind speed in m/s (hover to see current wind gust speed)